Home   Weather   Green River   Past weeks
Flag for USA

Past Weather in Green River, Wyoming, USA — Yesterday and Last 2 Weeks

Now
38 °F

Overcast.


Feels Like: 29 °F
Forecast: 49 / 28 °F
Wind: 16 mph from Southwest

Location: Rock Springs Weather Reporting Station

Current Time: Nov 13, 2019 at 6:03:47 am

Latest Report: Nov 13, 2019 at 4:54 am


Visibility: 10 mi

Pressure: 30.05 "Hg (23.87 "Hg at 1864m altitude)

Humidity: 41%

Dew Point: 16 °F

Location of Green RiverLocation

Past Weather in Green River — Graph

°F

Green River Temperature Yesterday

Maximum temperature yesterday: 45 °F (at 1:54 pm)
Minimum temperature yesterday: 9 °F (at 6:54 am)
Average temperature yesterday: 29 °F

High & Low Weather Summary for the Past Weeks

 TemperatureHumidityPressure
High59 °F (Nov 9, 1:54 pm)100% (Nov 7, 5:54 am)30.66 "Hg (Nov 7, 5:54 am)
Low-6 °F (Oct 30, 2:54 am)14% (Nov 8, 2:54 pm)29.86 "Hg (Oct 29, 5:03 am)
Average30 °F53%30.29 "Hg
* Reported Oct 29 5:03 am — Nov 13 4:54 am, Green River. Weather by CustomWeather, © 2019

Note: Actual official high and low records may vary slightly from our data, if they occured in-between our weather recording intervals... More about our weather records

Advertising

Green River Weather History for the Previous 24 Hours

Scroll right to see more
 ConditionsComfort  
Time TempWeatherWind HumidityBarometerVisibility
4:54 am
Wed, Nov 13
38 °FOvercast.16 mph41%30.05 "Hg10 mi
3:54 am40 °FClear.23 mph36%30.00 "Hg10 mi
2:54 am40 °FPassing clouds.22 mph33%29.99 "Hg10 mi
1:54 am41 °FClear.28 mph28%29.99 "Hg10 mi
12:54 am39 °FOvercast.24 mph30%30.01 "Hg10 mi
11:54 pm
Tue, Nov 12
39 °FOvercast.22 mph30%30.05 "Hg10 mi
10:54 pm37 °FClear.20 mph36%30.08 "Hg10 mi
9:54 pm36 °FClear.16 mph37%30.14 "Hg10 mi
8:54 pm38 °FClear.12 mph33%30.14 "Hg10 mi
7:54 pm39 °FClear.9 mph33%30.19 "Hg10 mi
6:54 pm38 °FClear.9 mph36%30.23 "Hg10 mi
5:54 pm39 °FClear.12 mph36%30.20 "Hg10 mi
4:54 pm41 °FSunny.15 mph35%30.21 "Hg10 mi
3:54 pm44 °FPassing clouds.9 mph32%30.23 "Hg9 mi
2:54 pm45 °FSunny.13 mph30%30.24 "Hg10 mi
1:54 pm45 °FSunny.9 mph31%30.25 "Hg10 mi
12:54 pm42 °FSunny.16 mph39%30.29 "Hg10 mi
11:54 am37 °FSunny.8 mph52%30.35 "Hg10 mi
10:54 am30 °FSunny.3 mph66%30.42 "Hg10 mi
9:54 am22 °FSunny.5 mph85%30.45 "Hg10 mi
8:54 am21 °FSunny.No wind85%30.47 "Hg10 mi
7:54 am17 °FSunny.No wind83%30.48 "Hg10 mi
6:54 am9 °FClear.6 mph91%30.53 "Hg10 mi
Weather by CustomWeather, © 2019

See weather overview